M I D A S
Marine Information and Data Acquisition System
Tripno 2251 of the Zeeleeuw from 2012-01-09 07:45:25 to 2012-01-09 16:54:30
Back to CruiseResearch ActivitiesStationsMapUnderway DataData graphs

EquipmentUnitsComments
TimeDGPSUTC
LatitudeDGPSDM.mWGS84
LongitudeDGPSDM.mWGS84
SpeedMeteo Stationm/sRelative wind speed
DirectionMeteo StationdegRelative wind direction
TemperatureMeteo Stationdeg CelciusAir temperature
PressureMeteo StationPaAtmospheric pressure
HumidityMeteo Station%Relative humidity
Missing or incorrect values are displayed as -999
Metereological data collected by the RV Zeeleeuw from 2012-01-09 07:41:39 to 2012-01-09 17:03:19
Time Latitude Longitude Speed Direction Temperature Pressure Humidity
2012-01-09 07:42 51°13.636 2°56.018 2.5 40 9.3 102750 49
2012-01-09 07:43 51°13.635 2°56.018 4.2 29 9.3 102750 47
2012-01-09 07:44 51°13.636 2°56.018 3.6 45 9.3 102750 47
2012-01-09 07:45 51°13.636 2°56.018 3.3 41 9.3 102750 50
2012-01-09 07:46 51°13.636 2°56.018 3.5 44 9.3 102750 50
2012-01-09 07:47 51°13.635 2°56.018 3.7 41 9.3 102750 50
2012-01-09 07:48 51°13.636 2°56.019 4.3 39 9.3 102750 47
2012-01-09 07:49 51°13.636 2°56.019 5 32 9.3 102750 48
2012-01-09 07:50 51°13.634 2°56.018 3.3 38 9.3 102750 47
2012-01-09 07:51 51°13.64 2°55.997 4.2 44 9.3 102750 49
2012-01-09 07:52 51°13.66 2°55.898 4.9 36 9.4 102750 50
2012-01-09 07:53 51°13.691 2°55.795 5 42 9.4 102750 47
2012-01-09 07:54 51°13.736 2°55.707 4.3 38 9.4 102740 47
2012-01-09 07:55 51°13.803 2°55.647 1.9 36 9.4 102750 47
2012-01-09 07:56 51°13.892 2°55.636 2.2 29 9.4 102750 49
2012-01-09 07:57 51°13.964 2°55.662 4.1 33 9.4 102750 46
2012-01-09 07:58 51°13.967 2°55.635 5.7 327 9.4 102760 48
2012-01-09 07:59 51°14.003 2°55.566 5.5 232 9.4 102750 49
2012-01-09 08:00 51°14.092 2°55.474 4.3 318 9.4 102750 46
2012-01-09 08:01 51°14.216 2°55.352 9 35 9.4 102750 49
2012-01-09 08:02 51°14.355 2°55.217 7.3 30 9.4 102760 46
2012-01-09 08:03 51°14.509 2°55.072 11.2 237 9.3 102730 48
2012-01-09 08:04 51°14.654 2°54.9 10.4 36 9.3 102750 47
2012-01-09 08:05 51°14.809 2°54.711 8.6 33 9.2 102770 47
2012-01-09 08:06 51°14.976 2°54.516 8.6 36 9.2 102750 49
2012-01-09 08:07 51°15.064 2°54.248 10.5 35 9.1 102750 49
2012-01-09 08:08 51°15.118 2°53.944 10 316 9.1 102750 49
2012-01-09 08:09 51°15.18 2°53.635 11.1 315 9.1 102760 49
2012-01-09 08:10 51°15.226 2°53.319 14.3 319 9.1 102750 49
2012-01-09 08:11 51°15.234 2°52.989 9.2 321 9.1 102750 48
2012-01-09 08:12 51°15.255 2°52.661 13.6 319 9.1 102750 48
2012-01-09 08:13 51°15.279 2°52.332 11 320 9.1 102750 48
2012-01-09 08:14 51°15.3 2°51.997 10.7 321 9 102750 49
2012-01-09 08:15 51°15.296 2°51.655 12.1 325 9 102760 49
2012-01-09 08:16 51°15.273 2°51.311 11.5 328 9.1 102760 49
2012-01-09 08:17 51°15.218 2°50.972 13.8 328 9 102770 48
2012-01-09 08:18 51°15.171 2°50.631 13.1 326 9.1 102760 50
2012-01-09 08:19 51°15.121 2°50.291 13.7 329 9.1 102750 50
2012-01-09 08:20 51°15.062 2°49.954 11.1 327 9.1 102750 48
2012-01-09 08:21 51°15.029 2°49.611 12.2 326 9.1 102770 49
2012-01-09 08:22 51°15.013 2°49.273 10.5 322 9.1 102760 49
2012-01-09 08:23 51°15.014 2°48.937 11.9 323 9.1 102760 49
2012-01-09 08:24 51°15.008 2°48.6 9.9 324 9.1 102770 49
2012-01-09 08:25 51°14.997 2°48.264 11.7 324 9.1 102770 49
2012-01-09 08:26 51°14.978 2°47.927 13.9 325 9.1 102770 48
2012-01-09 08:27 51°14.964 2°47.588 10 326 9.1 102740 49
2012-01-09 08:28 51°14.955 2°47.252 11.3 324 9.1 102770 49
2012-01-09 08:29 51°14.943 2°46.92 10.4 327 9.2 102740 50
2012-01-09 08:30 51°14.894 2°46.596 10 329 9.2 102780 48
2012-01-09 08:31 51°14.806 2°46.292 11.6 334 9.2 102780 49
2012-01-09 08:32 51°14.686 2°46.014 9.9 335 9.1 102790 48
2012-01-09 08:33 51°14.569 2°45.734 11.7 334 9.1 102790 49
2012-01-09 08:34 51°14.461 2°45.447 10.8 334 9.1 102790 49
2012-01-09 08:35 51°14.352 2°45.159 8.5 336 9.2 102780 47
2012-01-09 08:36 51°14.229 2°44.885 10.1 338 9.2 102790 49
2012-01-09 08:37 51°14.103 2°44.616 9 336 9.2 102790 49
2012-01-09 08:38 51°13.977 2°44.346 9.1 337 9.2 102800 47
2012-01-09 08:39 51°13.855 2°44.072 12.2 337 9.2 102770 46
2012-01-09 08:40 51°13.74 2°43.789 11.8 336 9.2 102780 47
2012-01-09 08:41 51°13.635 2°43.496 13.8 335 9.3 102780 47
2012-01-09 08:42 51°13.523 2°43.209 11.4 334 9.3 102780 47
2012-01-09 08:43 51°13.413 2°42.918 13.6 333 9.3 102780 47
2012-01-09 08:44 51°13.302 2°42.624 10.6 335 9.3 102800 48
2012-01-09 08:45 51°13.183 2°42.331 11 335 9.3 102790 49
2012-01-09 08:46 51°13.063 2°42.043 15.4 334 9.4 102780 48
2012-01-09 08:47 51°12.944 2°41.755 9.3 336 9.3 102780 48
2012-01-09 08:48 51°12.825 2°41.47 11.9 333 9.3 102790 49
2012-01-09 08:49 51°12.712 2°41.178 12.3 333 9.4 102790 49
2012-01-09 08:50 51°12.611 2°40.878 10.7 333 9.4 102790 48
2012-01-09 08:51 51°12.498 2°40.587 11.3 336 9.4 102780 48
2012-01-09 08:52 51°12.381 2°40.302 9.7 334 9.4 102790 49
2012-01-09 08:53 51°12.277 2°40.005 9.6 333 9.4 102790 49
2012-01-09 08:54 51°12.173 2°39.708 13 330 9.4 102790 49
2012-01-09 08:55 51°12.059 2°39.421 12.9 334 9.4 102790 49
2012-01-09 08:56 51°11.949 2°39.132 11.7 332 9.4 102780 50
2012-01-09 08:57 51°11.831 2°38.852 6.2 333 9.4 102780 49
2012-01-09 08:58 51°11.724 2°38.562 15.2 333 9.4 102780 48
2012-01-09 08:59 51°11.613 2°38.275 10.9 334 9.4 102790 50
2012-01-09 09:00 51°11.498 2°37.991 13.5 334 9.4 102790 50
2012-01-09 09:01 51°11.394 2°37.697 9.8 335 9.4 102790 49
2012-01-09 09:02 51°11.285 2°37.405 11.4 335 9.4 102790 49
2012-01-09 09:03 51°11.167 2°37.123 10.7 333 9.4 102780 48
2012-01-09 09:04 51°11.045 2°36.849 12.7 338 9.5 102770 49
2012-01-09 09:05 51°10.869 2°36.675 9.1 350 9.5 102760 50
2012-01-09 09:06 51°10.668 2°36.719 8.2 359 9.4 102770 49
2012-01-09 09:07 51°10.492 2°36.878 5.6 3 9.4 102780 48
2012-01-09 09:08 51°10.374 2°37.139 3.1 8 9.4 102780 48
2012-01-09 09:09 51°10.37 2°37.437 -999 320 9.3 102790 49
2012-01-09 09:10 51°10.488 2°37.677 3.5 257 9.3 102790 49
2012-01-09 09:11 51°10.579 2°37.954 0.2 244 9.3 102790 50
2012-01-09 09:12 51°10.668 2°38.233 0.9 241 9.3 102800 48
2012-01-09 09:13 51°10.688 2°38.509 5.6 9 9.3 102800 49
2012-01-09 09:14 51°10.552 2°38.733 5.1 7 9.3 102780 48
2012-01-09 09:15 51°10.405 2°38.953 6.3 8 9.3 102780 48
2012-01-09 09:16 51°10.217 2°38.988 10.9 345 9.3 102770 48
2012-01-09 09:17 51°10.078 2°38.753 19.1 336 9.3 102760 49
2012-01-09 09:18 51°9.974 2°38.465 16.8 333 9.3 102760 49
2012-01-09 09:19 51°9.877 2°38.168 12.6 334 9.3 102760 48
2012-01-09 09:20 51°9.779 2°37.873 15.2 334 9.4 102770 50
2012-01-09 09:21 51°9.674 2°37.585 15.7 333 9.4 102760 48
2012-01-09 09:22 51°9.573 2°37.295 8 332 9.4 102770 50
2012-01-09 09:23 51°9.484 2°36.998 14.4 333 9.4 102760 48
2012-01-09 09:24 51°9.401 2°36.695 13.2 333 9.4 102770 48
2012-01-09 09:25 51°9.316 2°36.396 15.2 332 9.4 102770 49
2012-01-09 09:26 51°9.221 2°36.103 16.6 335 9.4 102760 48
2012-01-09 09:27 51°9.135 2°35.803 16.8 334 9.4 102760 49
2012-01-09 09:28 51°9.041 2°35.511 13.6 332 9.5 102760 49
2012-01-09 09:29 51°8.954 2°35.214 16.1 334 9.4 102770 49
2012-01-09 09:30 51°8.86 2°34.922 14.5 333 9.5 102770 48
2012-01-09 09:31 51°8.776 2°34.623 14.9 332 9.5 102760 49
2012-01-09 09:32 51°8.687 2°34.327 6.6 334 9.5 102780 48
2012-01-09 09:33 51°8.589 2°34.04 9.5 335 9.5 102770 49
2012-01-09 09:34 51°8.5 2°33.748 11.2 334 9.5 102780 49
2012-01-09 09:35 51°8.425 2°33.446 12.4 334 9.5 102780 49
2012-01-09 09:36 51°8.342 2°33.15 16 333 9.5 102780 49
2012-01-09 09:37 51°8.323 2°32.847 14.5 316 9.5 102770 49
2012-01-09 09:38 51°8.477 2°32.674 12.3 242 9.5 102750 48
2012-01-09 09:39 51°8.642 2°32.789 4.4 264 9.5 102780 48
2012-01-09 09:40 51°8.801 2°32.982 5.8 254 9.6 102780 48
2012-01-09 09:41 51°8.962 2°33.173 4.9 262 9.6 102780 49
2012-01-09 09:42 51°9.117 2°33.377 5.2 264 9.6 102780 48
2012-01-09 09:43 51°9.275 2°33.574 5.1 255 9.6 102790 48
2012-01-09 09:44 51°9.431 2°33.782 6 253 9.6 102780 48
2012-01-09 09:45 51°9.584 2°33.998 4.7 259 9.6 102770 50
2012-01-09 09:46 51°9.733 2°34.219 4.4 262 9.6 102790 48
2012-01-09 09:47 51°9.887 2°34.432 4.9 263 9.6 102780 48
2012-01-09 09:48 51°10.043 2°34.642 4.5 260 9.6 102790 48
2012-01-09 09:49 51°10.192 2°34.867 5.3 258 9.7 102780 50
2012-01-09 09:50 51°10.341 2°35.089 5.1 261 9.7 102790 50
2012-01-09 09:51 51°10.497 2°35.295 4.8 260 9.6 102790 46
2012-01-09 09:52 51°10.644 2°35.517 4.9 256 9.7 102790 50
2012-01-09 09:53 51°10.798 2°35.726 6.2 256 9.6 102780 48
2012-01-09 09:54 51°10.958 2°35.923 4.8 249 9.7 102790 48
2012-01-09 09:55 51°11.128 2°36.094 5.5 250 9.7 102790 49
2012-01-09 09:56 51°11.296 2°36.267 4.5 249 9.6 102770 48
2012-01-09 09:57 51°11.466 2°36.438 5.6 247 9.6 102780 49
2012-01-09 09:58 51°11.635 2°36.612 4.5 249 9.6 102790 48
2012-01-09 09:59 51°11.799 2°36.797 5.3 247 9.6 102790 49
2012-01-09 10:00 51°11.97 2°36.963 5.9 252 9.6 102790 48
2012-01-09 10:01 51°12.139 2°37.136 6.4 249 9.6 102790 47
2012-01-09 10:02 51°12.308 2°37.306 6.2 255 9.5 102790 48
2012-01-09 10:03 51°12.475 2°37.484 7 258 9.5 102780 47
2012-01-09 10:04 51°12.636 2°37.68 5.8 258 9.5 102800 50
2012-01-09 10:05 51°12.797 2°37.875 6.9 257 9.5 102790 50
2012-01-09 10:06 51°12.961 2°38.066 6.2 257 9.6 102790 48
2012-01-09 10:07 51°13.122 2°38.261 5.7 261 9.6 102790 46
2012-01-09 10:08 51°13.282 2°38.462 8.1 257 9.6 102780 47
2012-01-09 10:09 51°13.444 2°38.658 7.1 258 9.6 102780 49
2012-01-09 10:10 51°13.61 2°38.846 6.6 259 9.6 102790 49
2012-01-09 10:11 51°13.769 2°39.05 5.6 260 9.6 102790 49
2012-01-09 10:12 51°13.916 2°39.276 5.6 260 9.6 102790 47
2012-01-09 10:13 51°14.068 2°39.497 6.4 261 9.7 102790 47
2012-01-09 10:14 51°14.219 2°39.721 7.8 260 9.7 102790 49
2012-01-09 10:15 51°14.372 2°39.938 5.6 261 9.7 102790 46
2012-01-09 10:16 51°14.522 2°40.16 5.8 258 9.7 102790 47
2012-01-09 10:17 51°14.671 2°40.386 6 254 9.7 102790 49
2012-01-09 10:18 51°14.825 2°40.603 6.7 260 9.7 102780 47
2012-01-09 10:19 51°14.977 2°40.823 9.5 259 9.7 102780 49
2012-01-09 10:20 51°15.147 2°40.992 6.4 21 9.7 102770 49
2012-01-09 10:21 51°15.324 2°41.148 8.7 248 9.7 102770 47
2012-01-09 10:22 51°15.503 2°41.267 8 238 9.7 102760 49
2012-01-09 10:23 51°15.69 2°41.231 8.8 25 9.7 102750 48
2012-01-09 10:24 51°15.878 2°41.173 9.6 34 9.7 102740 47
2012-01-09 10:25 51°16.015 2°40.997 12.5 325 9.6 102730 48
2012-01-09 10:26 51°16.006 2°40.711 17.5 337 9.7 102730 49
2012-01-09 10:27 51°15.917 2°40.441 15.3 338 9.7 102720 48
2012-01-09 10:28 51°15.813 2°40.18 6.9 339 9.7 102720 47
2012-01-09 10:29 51°15.702 2°39.927 21.2 340 9.7 102720 48
2012-01-09 10:30 51°15.597 2°39.669 17.5 340 9.7 102720 47
2012-01-09 10:31 51°15.487 2°39.417 10.1 340 9.7 102710 47
2012-01-09 10:32 51°15.381 2°39.163 10.7 338 9.8 102720 48
2012-01-09 10:33 51°15.281 2°38.907 6.4 339 9.8 102710 47
2012-01-09 10:34 51°15.176 2°38.661 12.2 342 9.8 102710 46
2012-01-09 10:35 51°15.06 2°38.432 18.6 344 9.8 102710 47
2012-01-09 10:36 51°14.942 2°38.209 11.6 341 9.8 102720 48
2012-01-09 10:37 51°14.828 2°37.986 6.7 341 9.8 102720 48
2012-01-09 10:38 51°14.709 2°37.772 10.2 344 9.8 102710 46
2012-01-09 10:39 51°14.604 2°37.544 12.2 339 9.9 102710 45
2012-01-09 10:40 51°14.512 2°37.308 14.7 341 9.8 102710 46
2012-01-09 10:41 51°14.414 2°37.077 16.4 340 9.8 102710 48
2012-01-09 10:42 51°14.317 2°36.844 12 338 9.8 102720 47
2012-01-09 10:43 51°14.22 2°36.614 11.1 338 9.8 102720 48
2012-01-09 10:44 51°14.115 2°36.39 14.3 343 9.8 102710 47
2012-01-09 10:45 51°14.014 2°36.162 11.8 341 9.8 102720 48
2012-01-09 10:46 51°13.911 2°35.937 6.9 339 9.8 102720 48
2012-01-09 10:47 51°13.813 2°35.707 18.2 341 9.8 102710 46
2012-01-09 10:48 51°13.703 2°35.496 18 347 9.8 102710 47
2012-01-09 10:49 51°13.531 2°35.399 10 353 9.9 102710 47
2012-01-09 10:50 51°13.374 2°35.268 6.3 344 9.8 102720 47
2012-01-09 10:51 51°13.27 2°35.049 10.2 340 9.8 102720 46
2012-01-09 10:52 51°13.176 2°34.821 12.3 341 9.8 102720 48
2012-01-09 10:53 51°13.1 2°34.574 17.9 339 9.8 102710 48
2012-01-09 10:54 51°13.025 2°34.328 7.6 336 9.9 102720 48
2012-01-09 10:55 51°12.948 2°34.08 16.5 338 9.9 102720 46
2012-01-09 10:56 51°12.864 2°33.839 6.9 337 9.9 102710 48
2012-01-09 10:57 51°12.778 2°33.599 17 339 9.9 102720 48
2012-01-09 10:58 51°12.7 2°33.349 11.3 338 9.9 102730 48
2012-01-09 10:59 51°12.623 2°33.099 11.4 339 9.9 102730 48
2012-01-09 11:00 51°12.539 2°32.857 15.2 339 9.8 102720 49
2012-01-09 11:01 51°12.461 2°32.609 13.1 338 9.9 102720 48
2012-01-09 11:02 51°12.383 2°32.361 13.3 339 9.9 102730 48
2012-01-09 11:03 51°12.304 2°32.114 6.5 339 9.9 102720 47
2012-01-09 11:04 51°12.23 2°31.865 6.9 336 9.9 102730 48
2012-01-09 11:05 51°12.157 2°31.616 15.5 338 9.9 102730 47
2012-01-09 11:06 51°12.081 2°31.371 11.3 337 9.8 102720 48
2012-01-09 11:07 51°12.01 2°31.124 11.6 336 9.9 102730 48
2012-01-09 11:08 51°11.953 2°30.87 10.8 336 9.8 102730 49
2012-01-09 11:09 51°11.899 2°30.62 9.5 336 9.8 102730 48
2012-01-09 11:10 51°11.843 2°30.372 13.5 336 9.8 102720 49
2012-01-09 11:11 51°11.775 2°30.136 7.1 338 9.8 102730 48
2012-01-09 11:12 51°11.712 2°29.902 12.1 335 9.8 102730 48
2012-01-09 11:13 51°11.654 2°29.663 11.9 336 9.8 102730 49
2012-01-09 11:14 51°11.603 2°29.418 12.6 333 9.8 102720 48
2012-01-09 11:15 51°11.576 2°29.159 17.9 332 9.8 102710 49
2012-01-09 11:16 51°11.544 2°28.901 13.2 336 9.8 102720 49
2012-01-09 11:17 51°11.505 2°28.645 14.5 333 9.8 102720 49
2012-01-09 11:18 51°11.467 2°28.389 6.8 332 9.9 102720 48
2012-01-09 11:19 51°11.436 2°28.131 18.3 330 9.9 102730 48
2012-01-09 11:20 51°11.418 2°27.869 11.7 328 9.9 102710 48
2012-01-09 11:21 51°11.463 2°27.614 12.4 318 9.9 102710 48
2012-01-09 11:22 51°11.614 2°27.46 13 33 10 102710 48
2012-01-09 11:23 51°11.781 2°27.325 12.5 35 10 102710 48
2012-01-09 11:24 51°11.965 2°27.239 12.5 236 10 102720 47
2012-01-09 11:25 51°12.166 2°27.214 10.8 240 10 102730 48
2012-01-09 11:26 51°12.372 2°27.306 9.4 247 10 102730 47
2012-01-09 11:27 51°12.576 2°27.447 9.4 246 9.9 102740 48
2012-01-09 11:28 51°12.781 2°27.588 8.4 252 9.9 102730 49
2012-01-09 11:29 51°12.983 2°27.748 7 244 9.9 102730 49
2012-01-09 11:30 51°13.17 2°27.948 6 256 9.9 102740 48
2012-01-09 11:31 51°13.34 2°28.19 7.5 255 9.9 102740 49
2012-01-09 11:32 51°13.51 2°28.434 7.9 258 9.9 102730 47
2012-01-09 11:33 51°13.677 2°28.684 7.9 257 9.9 102730 47
2012-01-09 11:34 51°13.846 2°28.923 6.8 261 9.9 102730 48
2012-01-09 11:35 51°14.011 2°29.175 8.7 259 9.9 102740 47
2012-01-09 11:36 51°14.18 2°29.42 8.1 256 9.9 102730 47
2012-01-09 11:37 51°14.344 2°29.674 7.2 262 9.9 102740 47
2012-01-09 11:38 51°14.508 2°29.927 7.3 258 9.9 102750 47
2012-01-09 11:39 51°14.672 2°30.185 6.2 253 9.9 102740 47
2012-01-09 11:40 51°14.848 2°30.413 7.3 247 9.9 102730 47
2012-01-09 11:41 51°15.04 2°30.605 9.1 251 9.9 102740 49
2012-01-09 11:42 51°15.228 2°30.815 5.6 260 9.9 102730 47
2012-01-09 11:43 51°15.394 2°31.077 5.8 259 9.9 102750 48
2012-01-09 11:44 51°15.559 2°31.338 6.1 261 9.9 102740 49
2012-01-09 11:45 51°15.73 2°31.592 6.8 263 9.9 102740 49
2012-01-09 11:46 51°15.896 2°31.854 5.7 257 9.9 102750 49
2012-01-09 11:47 51°16.066 2°32.106 5.7 258 9.9 102740 50
2012-01-09 11:48 51°16.234 2°32.36 6 260 9.9 102730 47
2012-01-09 11:49 51°16.4 2°32.621 6.2 256 9.9 102720 50
2012-01-09 11:50 51°16.568 2°32.873 5 258 9.9 102730 50
2012-01-09 11:51 51°16.659 2°33.101 4.3 31 9.9 102740 50
2012-01-09 11:52 51°16.626 2°33.232 8.8 13 9.9 102730 47
2012-01-09 11:53 51°16.582 2°33.253 9.8 346 9.8 102700 47
2012-01-09 11:54 51°16.531 2°33.176 11.5 340 9.8 102690 47
2012-01-09 11:55 51°16.442 2°33.069 11.2 342 9.8 102680 49
2012-01-09 11:56 51°16.349 2°32.939 12.5 341 9.8 102670 49
2012-01-09 11:57 51°16.258 2°32.799 9.8 341 9.8 102670 50
2012-01-09 11:58 51°16.168 2°32.656 11.3 340 9.8 102660 48
2012-01-09 11:59 51°16.078 2°32.515 14.4 343 9.8 102660 49
2012-01-09 12:00 51°16.021 2°32.446 9.6 346 9.8 102680 49
2012-01-09 12:01 51°15.985 2°32.381 10.9 330 9.8 102680 48
2012-01-09 12:02 51°15.989 2°32.287 10.7 329 9.8 102700 48
2012-01-09 12:03 51°16.001 2°32.225 9.5 330 9.8 102700 49
2012-01-09 12:04 51°16.01 2°32.151 12.2 323 9.8 102700 49
2012-01-09 12:05 51°16.053 2°32.083 9 321 9.9 102690 48
2012-01-09 12:06 51°16.076 2°32.037 12.3 334 9.9 102700 49
2012-01-09 12:07 51°16.066 2°31.998 10.6 345 9.9 102690 48
2012-01-09 12:08 51°16.047 2°31.95 12 337 9.9 102690 48
2012-01-09 12:09 51°16.028 2°31.893 9.1 338 9.9 102690 49
2012-01-09 12:10 51°16.012 2°31.834 9 341 9.9 102690 49
2012-01-09 12:11 51°15.992 2°31.776 8.9 342 9.9 102690 49
2012-01-09 12:12 51°15.972 2°31.715 11.3 337 9.9 102680 48
2012-01-09 12:13 51°15.954 2°31.654 10 340 9.9 102690 49
2012-01-09 12:14 51°15.936 2°31.592 9 337 9.8 102690 49
2012-01-09 12:15 51°15.917 2°31.53 8.9 338 9.9 102690 48
2012-01-09 12:16 51°15.897 2°31.47 10.3 338 9.8 102700 48
2012-01-09 12:17 51°15.885 2°31.407 8 330 9.9 102690 49
2012-01-09 12:18 51°15.891 2°31.334 11 322 9.8 102700 48
2012-01-09 12:19 51°15.933 2°31.271 9.1 33 9.9 102700 49
2012-01-09 12:20 51°16.013 2°31.257 7.8 249 9.9 102690 48
2012-01-09 12:21 51°16.104 2°31.314 4.3 264 9.9 102700 48
2012-01-09 12:22 51°16.179 2°31.433 5.4 39 9.9 102710 50
2012-01-09 12:23 51°16.218 2°31.591 3.1 36 9.9 102720 50
2012-01-09 12:24 51°16.24 2°31.737 3.6 32 10.2 102720 49
2012-01-09 12:25 51°16.259 2°31.864 5.6 34 10.3 102720 47
2012-01-09 12:26 51°16.271 2°31.983 5.6 30 10.1 102730 49
2012-01-09 12:27 51°16.276 2°32.095 7.1 36 10 102730 48
2012-01-09 12:28 51°16.274 2°32.197 7.7 34 10 102740 48
2012-01-09 12:29 51°16.267 2°32.292 7.1 34 9.9 102730 47
2012-01-09 12:30 51°16.257 2°32.383 8.2 30 9.9 102730 49
2012-01-09 12:31 51°16.244 2°32.469 8.2 26 9.9 102730 46
2012-01-09 12:32 51°16.226 2°32.544 7.5 17 9.9 102730 47
2012-01-09 12:33 51°16.207 2°32.609 8.9 14 9.8 102720 48
2012-01-09 12:34 51°16.171 2°32.662 7.6 7 9.8 102710 48
2012-01-09 12:35 51°16.152 2°32.704 7.5 2 9.8 102730 50
2012-01-09 12:36 51°16.144 2°32.751 6.5 6 9.8 102720 48
2012-01-09 12:37 51°16.118 2°32.781 8.8 353 9.8 102720 49
2012-01-09 12:38 51°16.053 2°32.789 7.6 3 9.8 102730 49
2012-01-09 12:39 51°16.011 2°32.818 8.1 360 9.8 102720 50
2012-01-09 12:40 51°15.985 2°32.851 8.6 358 9.8 102710 48
2012-01-09 12:41 51°15.958 2°32.865 9.7 352 9.8 102700 50
2012-01-09 12:42 51°15.918 2°32.789 8.8 319 9.8 102690 48
2012-01-09 12:43 51°16.022 2°32.784 8.3 262 9.8 102680 49
2012-01-09 12:44 51°16.097 2°33.003 2.1 31 9.8 102720 48
2012-01-09 12:45 51°16.11 2°33.285 2.6 32 10 102720 48
2012-01-09 12:46 51°16.099 2°33.619 2.1 36 10 102720 50
2012-01-09 12:47 51°16.084 2°33.98 2.5 33 10 102720 47
2012-01-09 12:48 51°16.055 2°34.338 2.5 37 9.9 102720 48
2012-01-09 12:49 51°16.033 2°34.689 1.8 32 9.9 102720 50
2012-01-09 12:50 51°16.042 2°35.04 0.4 267 9.9 102720 48
2012-01-09 12:51 51°16.13 2°35.374 2.3 263 9.9 102720 50
2012-01-09 12:52 51°16.273 2°35.655 5.4 259 9.9 102700 49
2012-01-09 12:53 51°16.421 2°35.935 3.2 260 9.9 102700 50
2012-01-09 12:54 51°16.561 2°36.232 4 264 9.9 102700 48
2012-01-09 12:55 51°16.704 2°36.528 3.7 261 9.9 102700 46
2012-01-09 12:56 51°16.845 2°36.824 5.1 263 10 102700 47
2012-01-09 12:57 51°16.982 2°37.128 4.8 259 10 102710 47
2012-01-09 12:58 51°17.123 2°37.425 4.3 264 10 102700 49
2012-01-09 12:59 51°17.28 2°37.709 6.1 256 10 102700 48
2012-01-09 13:00 51°17.437 2°37.985 7.1 258 10 102700 47
2012-01-09 13:01 51°17.592 2°38.266 5.6 254 10 102700 50
2012-01-09 13:02 51°17.751 2°38.545 5.9 253 10 102700 47
2012-01-09 13:03 51°17.91 2°38.825 7.1 257 10 102700 49
2012-01-09 13:04 51°18.063 2°39.108 5.2 256 10 102720 50
2012-01-09 13:05 51°18.245 2°39.301 7.5 25 10 102700 49
2012-01-09 13:06 51°18.41 2°39.177 14.7 326 10 102670 48
2012-01-09 13:07 51°18.402 2°38.914 17.2 335 10 102670 48
2012-01-09 13:08 51°18.357 2°38.639 11.7 332 9.9 102680 48
2012-01-09 13:09 51°18.328 2°38.354 11.2 332 9.9 102670 49
2012-01-09 13:10 51°18.313 2°38.067 12.1 331 9.9 102670 49
2012-01-09 13:11 51°18.312 2°37.775 15.4 331 9.9 102670 48
2012-01-09 13:12 51°18.31 2°37.483 16.6 334 9.9 102680 49
2012-01-09 13:13 51°18.314 2°37.195 10.4 331 9.9 102670 49
2012-01-09 13:14 51°18.33 2°36.907 11.1 330 9.9 102680 48
2012-01-09 13:15 51°18.341 2°36.621 12.8 330 10 102690 48
2012-01-09 13:16 51°18.359 2°36.336 16.2 328 10 102690 49
2012-01-09 13:17 51°18.379 2°36.051 11.6 330 10 102670 49
2012-01-09 13:18 51°18.406 2°35.765 13.3 331 10 102670 49
2012-01-09 13:19 51°18.425 2°35.48 16.8 327 10 102670 47
2012-01-09 13:20 51°18.461 2°35.199 11.9 327 10 102680 48
2012-01-09 13:21 51°18.499 2°34.919 13.4 328 10 102680 48
2012-01-09 13:22 51°18.534 2°34.635 12.8 327 10.1 102680 48
2012-01-09 13:23 51°18.569 2°34.35 11.9 328 10.1 102680 49
2012-01-09 13:24 51°18.601 2°34.067 6.8 328 10.1 102690 48
2012-01-09 13:25 51°18.645 2°33.786 13.4 327 10.1 102680 48
2012-01-09 13:26 51°18.699 2°33.511 11.4 316 10.1 102680 47
2012-01-09 13:27 51°18.881 2°33.494 6.5 258 10.1 102680 47
2012-01-09 13:28 51°19.025 2°33.773 5.5 261 10.1 102710 47
2012-01-09 13:29 51°19.175 2°34.064 3.5 258 10.1 102710 50
2012-01-09 13:30 51°19.318 2°34.362 4.5 258 10.1 102710 50
2012-01-09 13:31 51°19.468 2°34.648 4.9 259 10.1 102710 47
2012-01-09 13:32 51°19.614 2°34.938 6 259 10.1 102710 48
2012-01-09 13:33 51°19.764 2°35.222 5.1 256 10.1 102720 50
2012-01-09 13:34 51°19.906 2°35.516 5.3 258 10.1 102710 50
2012-01-09 13:35 51°20.054 2°35.8 6 254 10 102710 49
2012-01-09 13:36 51°20.204 2°36.079 5.1 252 10 102710 48
2012-01-09 13:37 51°20.35 2°36.365 4.8 259 10 102710 49
2012-01-09 13:38 51°20.497 2°36.647 6.5 258 10 102720 48
2012-01-09 13:39 51°20.637 2°36.941 4.7 259 10 102710 47
2012-01-09 13:40 51°20.785 2°37.221 4.4 259 10 102720 47
2012-01-09 13:41 51°20.929 2°37.51 3.8 261 10 102720 49
2012-01-09 13:42 51°21.078 2°37.791 4.8 258 10 102720 50
2012-01-09 13:43 51°21.219 2°38.08 3.8 259 10 102710 47
2012-01-09 13:44 51°21.364 2°38.361 5.2 253 10 102710 49
2012-01-09 13:45 51°21.515 2°38.639 4.5 261 10 102720 50
2012-01-09 13:46 51°21.665 2°38.913 4.3 260 10 102710 47
2012-01-09 13:47 51°21.823 2°39.182 4.5 254 10 102710 49
2012-01-09 13:48 51°21.982 2°39.445 5.3 258 9.9 102700 50
2012-01-09 13:49 51°22.142 2°39.715 5 259 9.9 102710 50
2012-01-09 13:50 51°22.296 2°39.983 4.8 255 9.9 102710 47
2012-01-09 13:51 51°22.45 2°40.255 5.1 255 9.9 102710 48
2012-01-09 13:52 51°22.605 2°40.522 6 258 9.9 102710 50
2012-01-09 13:53 51°22.762 2°40.79 5.9 256 9.9 102710 50
2012-01-09 13:54 51°22.916 2°41.061 5 256 9.9 102700 47
2012-01-09 13:55 51°23.074 2°41.329 5.6 256 9.9 102700 50
2012-01-09 13:56 51°23.233 2°41.597 5.2 258 9.9 102710 50
2012-01-09 13:57 51°23.387 2°41.874 5.3 261 9.9 102700 47
2012-01-09 13:58 51°23.548 2°42.141 5.3 252 9.9 102700 47
2012-01-09 13:59 51°23.709 2°42.405 5.3 252 9.9 102700 46
2012-01-09 14:00 51°23.864 2°42.682 5 256 9.9 102710 49
2012-01-09 14:01 51°24.019 2°42.954 4.6 267 10 102710 47
2012-01-09 14:02 51°24.18 2°43.221 5.1 254 10 102720 47
2012-01-09 14:03 51°24.338 2°43.49 6.3 257 10 102710 50
2012-01-09 14:04 51°24.496 2°43.758 6.8 249 10 102720 50
2012-01-09 14:05 51°24.651 2°44.031 5.8 254 10 102720 47
2012-01-09 14:06 51°24.811 2°44.295 5.4 254 10 102720 50
2012-01-09 14:07 51°24.973 2°44.555 5.7 250 10 102720 48
2012-01-09 14:08 51°25.129 2°44.82 4.8 249 10 102730 50
2012-01-09 14:09 51°25.29 2°45.081 7.4 256 10 102730 48
2012-01-09 14:10 51°25.448 2°45.345 4.8 264 10 102710 47
2012-01-09 14:11 51°25.547 2°45.671 2.1 263 10 102720 50
2012-01-09 14:12 51°25.644 2°46.001 3.7 32 10 102720 48
2012-01-09 14:13 51°25.737 2°46.329 2.2 270 10 102720 50
2012-01-09 14:14 51°25.833 2°46.653 2.9 264 10 102730 49
2012-01-09 14:15 51°25.951 2°46.965 3.3 262 10 102730 47
2012-01-09 14:16 51°26.064 2°47.281 4.2 260 10 102710 48
2012-01-09 14:17 51°26.171 2°47.599 3.1 265 10 102720 49
2012-01-09 14:18 51°26.278 2°47.917 3.3 267 10.1 102730 47
2012-01-09 14:19 51°26.386 2°48.242 4 261 10.1 102720 47
2012-01-09 14:20 51°26.499 2°48.558 3.4 263 10 102730 48
2012-01-09 14:21 51°26.61 2°48.874 2.9 264 10.1 102730 48
2012-01-09 14:22 51°26.716 2°49.196 2.9 261 10.1 102720 49
2012-01-09 14:23 51°26.823 2°49.521 3.4 252 10.1 102720 48
2012-01-09 14:24 51°26.938 2°49.838 2.9 263 10.1 102710 49
2012-01-09 14:25 51°27.05 2°50.16 2.8 265 10 102720 48
2012-01-09 14:26 51°27.158 2°50.481 5 261 10.1 102710 47
2012-01-09 14:27 51°27.267 2°50.802 3.7 262 10.1 102720 48
2012-01-09 14:28 51°27.376 2°51.124 2.7 265 10.1 102730 50
2012-01-09 14:29 51°27.485 2°51.444 3.2 261 10.1 102720 47
2012-01-09 14:30 51°27.595 2°51.763 3.7 257 10.1 102740 47
2012-01-09 14:31 51°27.699 2°52.087 3.2 263 10.1 102720 48
2012-01-09 14:32 51°27.81 2°52.403 4.1 260 10 102720 48
2012-01-09 14:33 51°27.922 2°52.72 3 262 10 102720 47
2012-01-09 14:34 51°28.034 2°53.038 3.2 258 10 102720 50
2012-01-09 14:35 51°28.138 2°53.362 2.3 267 10 102720 49
2012-01-09 14:36 51°28.247 2°53.682 3.4 264 10 102720 48
2012-01-09 14:37 51°28.35 2°53.979 2.2 263 10 102720 50
2012-01-09 14:38 51°28.417 2°54.152 6 25 10 102710 50
2012-01-09 14:39 51°28.458 2°54.273 5.7 19 10 102710 49
2012-01-09 14:40 51°28.489 2°54.399 3.6 20 10 102710 50
2012-01-09 14:41 51°28.496 2°54.538 7.6 23 10.1 102720 48
2012-01-09 14:42 51°28.495 2°54.632 6.5 42 10 102730 47
2012-01-09 14:43 51°28.494 2°54.705 6.3 38 10 102730 50
2012-01-09 14:44 51°28.455 2°54.794 6.6 18 10 102740 50
2012-01-09 14:45 51°28.395 2°54.839 8.2 17 10 102730 48
2012-01-09 14:46 51°28.352 2°54.857 9 13 10 102740 48
2012-01-09 14:47 51°28.311 2°54.857 8.5 4 9.9 102730 50
2012-01-09 14:48 51°28.272 2°54.848 8.2 2 9.9 102720 48
2012-01-09 14:49 51°28.238 2°54.822 9.2 355 9.9 102710 49
2012-01-09 14:50 51°28.209 2°54.785 8.1 354 9.9 102710 50
2012-01-09 14:51 51°28.18 2°54.751 9.6 356 9.9 102720 50
2012-01-09 14:52 51°28.146 2°54.712 8.5 353 9.9 102720 49
2012-01-09 14:53 51°28.113 2°54.666 8.9 355 9.9 102710 48
2012-01-09 14:54 51°28.08 2°54.621 9.9 351 9.9 102710 49
2012-01-09 14:55 51°28.047 2°54.576 9.8 354 9.9 102710 50
2012-01-09 14:56 51°28.014 2°54.533 9.4 357 9.9 102710 50
2012-01-09 14:57 51°27.979 2°54.492 9.8 354 9.9 102720 49
2012-01-09 14:58 51°27.943 2°54.453 8.1 355 9.9 102720 48
2012-01-09 14:59 51°27.911 2°54.41 9.9 349 9.9 102720 49
2012-01-09 15:00 51°27.888 2°54.355 9.3 347 9.9 102730 50
2012-01-09 15:01 51°27.865 2°54.295 9 347 9.9 102730 48
2012-01-09 15:02 51°27.841 2°54.241 7.8 348 9.9 102730 48
2012-01-09 15:03 51°27.818 2°54.182 8 348 9.9 102730 49
2012-01-09 15:04 51°27.792 2°54.126 7.8 353 9.9 102730 49
2012-01-09 15:05 51°27.763 2°54.073 7.8 348 9.9 102730 49
2012-01-09 15:06 51°27.736 2°54.018 8.3 349 9.9 102740 49
2012-01-09 15:07 51°27.712 2°53.962 8.9 349 9.9 102740 50
2012-01-09 15:08 51°27.686 2°53.909 8.4 350 9.9 102740 48
2012-01-09 15:09 51°27.658 2°53.857 8.3 350 9.9 102740 48
2012-01-09 15:10 51°27.631 2°53.802 9.1 348 9.9 102740 50
2012-01-09 15:11 51°27.605 2°53.745 8.3 349 9.9 102740 48
2012-01-09 15:12 51°27.579 2°53.694 9 351 9.9 102740 48
2012-01-09 15:13 51°27.552 2°53.64 10.3 350 9.9 102740 48
2012-01-09 15:14 51°27.54 2°53.575 8.4 341 10 102740 48
2012-01-09 15:15 51°27.539 2°53.504 10.2 339 10 102750 48
2012-01-09 15:16 51°27.533 2°53.432 9.9 345 10 102740 48
2012-01-09 15:17 51°27.51 2°53.371 8.4 352 10 102740 48
2012-01-09 15:18 51°27.481 2°53.314 5.3 351 10 102740 48
2012-01-09 15:19 51°27.452 2°53.257 11.2 350 10 102740 50
2012-01-09 15:20 51°27.425 2°53.2 9.3 352 10 102750 49
2012-01-09 15:21 51°27.399 2°53.143 12.7 348 10 102750 49
2012-01-09 15:22 51°27.381 2°53.08 10.2 340 10 102730 49
2012-01-09 15:23 51°27.387 2°53.011 9.2 329 10.1 102730 48
2012-01-09 15:24 51°27.417 2°52.94 6 331 10.1 102740 48
2012-01-09 15:25 51°27.459 2°52.877 9.1 27 10.1 102750 49
2012-01-09 15:26 51°27.526 2°52.851 8.6 238 10.2 102740 48
2012-01-09 15:27 51°27.595 2°52.873 11.2 257 10.2 102740 47
2012-01-09 15:28 51°27.652 2°52.938 6.5 269 10.2 102760 50
2012-01-09 15:29 51°27.684 2°53.025 6 25 10.1 102770 49
2012-01-09 15:30 51°27.695 2°53.119 5 22 10.1 102770 47
2012-01-09 15:31 51°27.689 2°53.226 5.6 45 10.3 102780 49
2012-01-09 15:32 51°27.634 2°53.338 8.5 21 10.2 102790 50
2012-01-09 15:33 51°27.581 2°53.384 9.5 19 10.2 102800 47
2012-01-09 15:34 51°27.516 2°53.384 9.2 4 10.1 102780 49
2012-01-09 15:35 51°27.473 2°53.357 8.3 1 10.1 102800 47
2012-01-09 15:36 51°27.457 2°53.352 7.2 1 10.1 102790 47
2012-01-09 15:37 51°27.453 2°53.364 7.8 5 10.1 102790 47
2012-01-09 15:38 51°27.454 2°53.384 7.5 3 10 102780 50
2012-01-09 15:39 51°27.415 2°53.376 8.6 -999 10 102780 48
2012-01-09 15:40 51°27.299 2°53.315 12.5 359 10 102760 47
2012-01-09 15:41 51°27.141 2°53.21 13.3 356 10 102760 49
2012-01-09 15:42 51°26.97 2°53.091 10.6 356 10 102750 49
2012-01-09 15:43 51°26.794 2°52.993 11.9 357 10 102760 49
2012-01-09 15:44 51°26.604 2°52.957 11 1 10 102760 49
2012-01-09 15:45 51°26.414 2°52.911 13.7 360 10 102770 49
2012-01-09 15:46 51°26.226 2°52.865 11.3 360 10 102770 49
2012-01-09 15:47 51°26.037 2°52.822 9.2 358 10 102770 49
2012-01-09 15:48 51°25.848 2°52.784 9.5 359 10 102770 50
2012-01-09 15:49 51°25.66 2°52.746 9.8 1 10 102770 48
2012-01-09 15:50 51°25.474 2°52.695 10.6 358 10 102770 48
2012-01-09 15:51 51°25.286 2°52.646 9.3 360 10 102770 47
2012-01-09 15:52 51°25.098 2°52.598 12.2 358 10 102780 49
2012-01-09 15:53 51°24.911 2°52.538 8.8 358 10 102780 49
2012-01-09 15:54 51°24.722 2°52.496 5.2 358 10 102770 48
2012-01-09 15:55 51°24.531 2°52.473 9.3 2 10 102770 49
2012-01-09 15:56 51°24.338 2°52.486 8.4 360 9.9 102780 47
2012-01-09 15:57 51°24.144 2°52.495 9.3 1 9.9 102780 48
2012-01-09 15:58 51°23.952 2°52.502 10.6 -999 9.9 102770 49
2012-01-09 15:59 51°23.761 2°52.5 8.8 3 9.9 102780 49
2012-01-09 16:00 51°23.568 2°52.511 9.1 2 9.9 102780 48
2012-01-09 16:01 51°23.376 2°52.508 8.4 3 9.9 102790 48
2012-01-09 16:02 51°23.183 2°52.512 9.7 359 9.9 102780 49
2012-01-09 16:03 51°22.989 2°52.508 10.1 360 9.9 102780 47
2012-01-09 16:04 51°22.795 2°52.482 9.7 359 9.9 102790 49
2012-01-09 16:05 51°22.602 2°52.466 9.2 359 9.9 102790 49
2012-01-09 16:06 51°22.407 2°52.476 9.1 -999 9.9 102800 47
2012-01-09 16:07 51°22.213 2°52.48 9.6 358 9.8 102800 49
2012-01-09 16:08 51°22.017 2°52.455 9.8 359 9.8 102810 48
2012-01-09 16:09 51°21.823 2°52.435 10.6 358 9.8 102800 49
2012-01-09 16:10 51°21.627 2°52.41 8.9 358 9.8 102810 49
2012-01-09 16:11 51°21.429 2°52.4 9.3 356 9.7 102810 47
2012-01-09 16:12 51°21.23 2°52.383 10.8 355 9.7 102810 49
2012-01-09 16:13 51°21.03 2°52.357 9 357 9.7 102810 47
2012-01-09 16:14 51°20.833 2°52.333 8.1 356 9.7 102810 48
2012-01-09 16:15 51°20.635 2°52.318 8.6 356 9.7 102810 48
2012-01-09 16:16 51°20.438 2°52.303 8.5 356 9.7 102810 49
2012-01-09 16:17 51°20.24 2°52.29 8.7 358 9.6 102810 50
2012-01-09 16:18 51°20.043 2°52.284 8.4 356 9.6 102820 50
2012-01-09 16:19 51°19.846 2°52.275 10.6 359 9.6 102820 50
2012-01-09 16:20 51°19.648 2°52.26 8.4 360 9.6 102820 50
2012-01-09 16:21 51°19.45 2°52.246 8.3 359 9.6 102830 50
2012-01-09 16:22 51°19.251 2°52.236 9.4 357 9.6 102830 51
2012-01-09 16:23 51°19.053 2°52.23 9.5 359 9.6 102820 51
2012-01-09 16:24 51°18.855 2°52.222 9 359 9.6 102830 49
2012-01-09 16:25 51°18.656 2°52.21 8.9 356 9.6 102830 49
2012-01-09 16:26 51°18.459 2°52.221 8.7 359 9.6 102840 48
2012-01-09 16:27 51°18.261 2°52.239 9.1 1 9.6 102840 49
2012-01-09 16:28 51°18.064 2°52.26 8.1 359 9.6 102840 51
2012-01-09 16:29 51°17.867 2°52.264 8.1 358 9.6 102850 50
2012-01-09 16:30 51°17.668 2°52.267 9.7 357 9.6 102850 51
2012-01-09 16:31 51°17.472 2°52.307 6.5 3 9.6 102850 50
2012-01-09 16:32 51°17.289 2°52.427 6.5 7 9.5 102860 48
2012-01-09 16:33 51°17.106 2°52.545 6 2 9.6 102870 49
2012-01-09 16:34 51°16.919 2°52.645 6.8 4 9.6 102870 51
2012-01-09 16:35 51°16.74 2°52.78 6.1 5 9.5 102880 51
2012-01-09 16:36 51°16.553 2°52.894 6.2 4 9.5 102870 49
2012-01-09 16:37 51°16.364 2°53.002 6.4 4 9.5 102880 49
2012-01-09 16:38 51°16.176 2°53.116 6.3 1 9.5 102880 51
2012-01-09 16:39 51°16.001 2°53.267 5.2 8 9.5 102880 50
2012-01-09 16:40 51°15.828 2°53.425 6.3 7 9.5 102880 51
2012-01-09 16:41 51°15.668 2°53.592 6.2 11 9.5 102880 49
2012-01-09 16:42 51°15.554 2°53.713 5.1 20 9.5 102890 51
2012-01-09 16:43 51°15.47 2°53.797 4.8 22 9.5 102900 51
2012-01-09 16:44 51°15.401 2°53.86 5 28 9.5 102890 48
2012-01-09 16:45 51°15.339 2°53.917 5.9 28 9.5 102890 48
2012-01-09 16:46 51°15.28 2°53.973 5.8 27 9.5 102890 50
2012-01-09 16:47 51°15.219 2°54.045 5.7 25 9.5 102890 51
2012-01-09 16:48 51°15.137 2°54.152 5.3 23 9.5 102890 48
2012-01-09 16:49 51°15.029 2°54.31 6.2 15 9.5 102890 48
2012-01-09 16:50 51°14.894 2°54.507 6 9 9.5 102890 48
2012-01-09 16:51 51°14.744 2°54.721 6 8 9.5 102890 51
2012-01-09 16:52 51°14.592 2°54.924 5.5 6 9.5 102900 48
2012-01-09 16:53 51°14.438 2°55.121 5.7 2 9.5 102900 48
2012-01-09 16:54 51°14.294 2°55.266 5.8 8 9.4 102900 50
2012-01-09 16:55 51°14.158 2°55.388 5.5 355 9.4 102910 49
2012-01-09 16:56 51°14.024 2°55.485 3.6 19 9.4 102910 49
2012-01-09 16:57 51°13.917 2°55.562 0.6 -999 9.5 102910 50
2012-01-09 16:58 51°13.826 2°55.631 2.2 3 9.6 102910 51
2012-01-09 16:59 51°13.749 2°55.722 0.8 10 9.7 102910 49
2012-01-09 17:00 51°13.692 2°55.828 1.9 20 9.7 102910 48
2012-01-09 17:01 51°13.656 2°55.922 1.4 19 9.8 102920 50
2012-01-09 17:02 51°13.641 2°56.006 1.8 21 9.8 102910 48